350988 (2003 GW) |
Classification: Apollo [NEO] SPK-ID: 2350988 |
[ hide orbit diagram ]
For accurate long-term ephemerides, please instead use our Horizons system.This orbit viewer was implemented using two-body methods, and hence should not be used for determining accurate long-term trajectories (over several years or decades) or planetary encounter circumstances.
Orbital Elements at Epoch 2459200.5 (2020-Dec-17.0) TDB
Reference: JPL 154 (heliocentric ecliptic J2000)
Element | Value | Uncertainty (1-sigma) | Units |
e | .4763015396335231 | 3.3005e-08 | |
a | 1.820565342183858 | 7.025e-09 | au |
q | .9534272666982546 | 6.0351e-08 | au |
i | 49.43734497574371 | 1.418e-05 | deg |
node | 183.1888122902124 | 6.2924e-06 | deg |
peri | 90.64228763368496 | 1.1609e-05 | deg |
M | 19.74249812437981 | 1.0513e-05 | deg |
tp | 2459151.295203744386 (2020-Oct-28.79520374) | 2.5965e-05 | TDB |
period | 897.238360638185 2.46 | 5.1933e-06 1.422e-08 | d yr |
n | .4012311731120594 | 2.3223e-09 | deg/d |
Q | 2.687703417669461 | 1.0371e-08 | au |
|
| | Orbit Determination Parameters
Additional Information
|
[ show covariance matrix ]
Physical Parameter Table
Parameter |
Symbol |
Value |
Units |
Sigma |
Reference |
Notes |
absolute magnitude |
H |
16.8 |
|
n/a |
MPO268393 |
|
rotation period |
rot_per |
9.58 |
h |
n/a |
LCDB (Rev. 2020-October); Warner et al., 2009 |
Result based on less than full coverage, so that the period may be wrong by 30 percent or so. Published Reference List: [Warner, B.D. (2014) Minor Planet Bull. 41, 41-47.] |
|
350988 (2003 GW) Discovered 2003-Apr-04 by NEAT at Haleakala |
Reference: 20130127/Numbers.arc | Last Updated: 2013-01-31 |
|
[ show close-approach data ]
|